Погода в Розвилле

США     38°47′23″N   121°17′01″W
темп.,
°C
ветер,
м/с
пор.,
м/с
влажн.,
%
обл.,
%
осадки,
мм/ч
давл.,
гПа
погр.,
м
19 апреля, пн
пн1923:00+18вюв3536100 0.0 101795
02:00+16юв23429 0.0 101778
05:00+13юв2347100 0.0 101773
08:00+15юв24525 0.0 1018193
11:00+22ю33365 0.0 1018650
14:00+27юз232439 0.0 10161030
17:00+28юз23245 0.0 10131319
20:00+21ю35412 0.0 1013159
20 апреля, вт
вт2023:00+16юв365581 0.0 1014205
02:00+13ююв3761100 0.0 1013246
05:00+11ююв3568100 0.0 1013229
08:00+12ююв356758 0.0 1013310
11:00+18ю34450 0.0 1012860
14:00+24юз34310 0.0 10091601
17:00+25сз24321 0.0 10071912
20:00+17зюз016397 0.6 100717
21 апреля, ср
ср2123:00+14в117533 0.6 100852
02:00+12всв22810 0.0 100864
05:00+11сз01820 0.0 100928
08:00+13ю12710 0.0 1010205
11:00+20ююз21450 0.0 1010826
14:00+25з23280 0.0 10081144
17:00+26с13230 0.0 10061394
20:00+20ююз36383 0.0 1006165
22 апреля, чт
чт2223:00+15юв35530 0.0 1008139
02:00+12юв24610 0.0 1009115
05:00+11в12590 0.0 101049
08:00+14юв11425 0.0 1012148
11:00+21юз112913 0.0 1012607
14:00+26зюз22245 0.0 10101093
17:00+28ююз22185 0.0 10081624
20:00+19ю374428 0.0 1009233
23 апреля, пт
пт2323:00+14ююв4861100 0.0 1011307
02:00+12ю377081 0.0 1011242
05:00+10ю257872 0.0 1012209
08:00+12ю23691 0.0 1014297
11:00+19ююз23410 0.0 1013738
14:00+25ююз23275 0.0 10121288
17:00+26ю342358 0.0 10101666
20:00+17ююз4850100 0.0 1011287